Clarksville, TN

8:18 AM CDT on April 26, 2018 (GMT -0500)
Outlaw

Weather History for KCKV - December, 2013

Change the Weather History Date:

Sunday, December 1, 2013

  Actual Average Record
Temperature  
Mean Temperature 50 °F 42 °F  
Max Temperature 55 °F 52 °F 73 °F (1970)
Min Temperature 45 °F 33 °F 12 °F (1964)
Degree Days  
Heating Degree Days 15    
Month to date heating degree days 15  
Since 1 July heating degree days 848  
Cooling Degree Days 0    
Month to date cooling degree days 0  
Year to date cooling degree days  
Moisture  
Dew Point 33 °F    
Average Humidity 56    
Maximum Humidity 66    
Minimum Humidity 46    
Precipitation  
Precipitation 0.00 in 0.18 in 2.01 in (1981)
Month to date precipitation 0.00 0.18  
Year to date precipitation 45.33  
Sea Level Pressure  
Sea Level Pressure 30.09 in    
Wind  
Wind Speed 4 mph (SSW)    
Max Wind Speed 9 mph    
Max Gust Speed 13 mph    
Visibility 10 miles    
Events      
T = Trace of Precipitation, MM = Missing Value Source: NWS Daily Summary

Daily Weather History Graph

Daily Weather History Graph

Search for Another Location

Airport or City:

Astronomy

Dec. 01, 2013 Rise Set
Actual Time 6:43 AM CST 4:33 PM CST
Civil Twilight 6:15 AM CST 5:02 PM CST
Nautical Twilight 5:43 AM CST 5:34 PM CST
Astronomical Twilight 5:11 AM CST 6:05 PM CST
Moon 5:03 AM CST (12/1) 3:41 PM CST (12/1)
Length of Visible Light 10h 47m
Length of Day
9h 50m
Waning Crescent, 2% of the Moon is Illuminated
Dec 1
Waning Crescent
Dec 2
New
Dec 9
First Quarter
Dec 17
Full
Dec 25
Last Quarter

Hourly Weather History & Observations

Time (CST) Temp. Windchill Dew Point Humidity Pressure Visibility Wind Dir Wind Speed Gust Speed Precip Events Conditions
12:52 AM 46.0 °F 43.1 °F 28.9 °F 51% 30.20 in 10.0 mi South 5.8 mph - N/A   Overcast
1:52 AM 46.0 °F 43.9 °F 30.0 °F 54% 30.22 in 10.0 mi South 4.6 mph - N/A   Overcast
2:52 AM 46.0 °F 44.8 °F 30.0 °F 54% 30.20 in 10.0 mi South 3.5 mph - N/A   Overcast
3:52 AM 48.0 °F - 30.0 °F 50% 30.18 in 10.0 mi SSW 5.8 mph - N/A   Overcast
4:52 AM 48.0 °F - 30.0 °F 50% 30.18 in 10.0 mi SSW 4.6 mph - N/A   Overcast
5:52 AM 48.0 °F - 30.0 °F 50% 30.18 in 10.0 mi SSW 6.9 mph - N/A   Overcast
6:52 AM 48.0 °F - 30.0 °F 50% 30.18 in 10.0 mi SSW 5.8 mph - N/A   Overcast
7:52 AM 48.9 °F - 30.0 °F 48% 30.17 in 10.0 mi SSW 6.9 mph - N/A   Overcast
8:52 AM 48.9 °F - 30.9 °F 50% 30.18 in 10.0 mi SSW 4.6 mph - N/A   Overcast
9:52 AM 50.0 °F - 30.9 °F 48% 30.17 in 10.0 mi SSW 5.8 mph - N/A   Overcast
10:52 AM 52.0 °F - 32.0 °F 47% 30.15 in 10.0 mi South 8.1 mph - N/A   Overcast
11:52 AM 53.1 °F - 33.1 °F 47% 30.12 in 10.0 mi SW 4.6 mph - N/A   Overcast
12:52 PM 54.0 °F - 34.0 °F 47% 30.09 in 10.0 mi South 5.8 mph - N/A   Overcast
1:52 PM 54.0 °F - 36.0 °F 51% 30.06 in 10.0 mi South 4.6 mph - N/A   Overcast
2:52 PM 54.0 °F - 36.0 °F 51% 30.04 in 10.0 mi SSW 3.5 mph - N/A   Overcast
3:52 PM 53.1 °F - 37.0 °F 55% 30.03 in 10.0 mi Calm Calm - N/A   Overcast
4:52 PM 53.1 °F - 36.0 °F 52% 30.02 in 10.0 mi Calm Calm - N/A   Overcast
5:52 PM 50.0 °F - 37.0 °F 61% 30.01 in 10.0 mi SE 3.5 mph - N/A   Overcast
6:52 PM 50.0 °F - 37.0 °F 61% 30.01 in 10.0 mi Calm Calm - N/A   Overcast
7:52 PM 50.0 °F - 37.0 °F 61% 29.99 in 10.0 mi Calm Calm - N/A   Overcast
8:52 PM 50.0 °F - 36.0 °F 59% 29.99 in 10.0 mi Calm Calm - N/A   Overcast
9:52 PM 48.9 °F - 37.0 °F 64% 29.97 in 10.0 mi SSE 3.5 mph - N/A   Overcast
10:52 PM 50.0 °F - 37.0 °F 61% 29.96 in 10.0 mi Calm Calm - N/A   Overcast
11:52 PM 48.9 °F - 37.0 °F 64% 29.94 in 10.0 mi Calm Calm - N/A   Overcast